Temp
62 62 62 62 62 63 63 63 63 63 62 62 62 61 60 59 57 55 56 57 58 60 63 60 62 65 64 64 65 64 65 64 64 63 64 65 66 61 57 57 60 59 57 56 54 54 57 60 59 60 61 62 63 63 61 60 59 58 61 64 64 60 58 59 59 62 65 66 64 60 58 58 59 58
62 62 62 62 62 63 63 62 62 62 62 62 62 61 61 61 58 58 56 57 60 60 62 62 61 63 64 65 64 65 64 62 62 64 62 64 65 60 56 56 58 58 56 55 52 53 55 58 59 60 61 62 63 61 60 59 58 60 64 65 64 60 60 60 61 63 64 62 58 57 58 57 58 59
62 62 62 62 62 63 62 63 62 63 63 62 62 62 62 61 61 59 58 56 58 61 59 61 63 63 64 65 65 64 64 63 62 63 64 65 61 59 59 56 56 57 56 55 53 56 56 56 57 59 61 62 62 60 61 61 61 64 64 62 59 60 61 60 60 64 62 60 59 58 58 58 58 59
62 62 62 62 62 62 62 62 62 62 63 63 62 62 61 61 61 60 59 57 57 59 60 61 62 63 63 64 63 63 64 64 60 63 62 65 60 61 64 56 55 56 55 54 55 59 59 57 58 60 60 62 62 61 62 62 63 62 60 57 57 59 59 59 60 63 61 60 60 59 58 58 58 58
61 61 61 62 62 63 62 62 62 62 62 62 62 62 61 61 61 60 59 57 57 58 60 61 62 63 63 63 64 63 63 63 62 61 63 63 61 63 64 62 55 54 53 52 52 54 55 56 61 60 59 61 61 60 60 59 57 60 59 54 55 55 57 57 57 59 60 60 59 57 58 57 57 57
61 61 60 61 61 62 61 62 62 62 61 61 61 61 61 61 60 60 59 58 57 56 58 59 61 62 63 62 64 62 62 62 61 61 62 61 61 61 62 62 60 54 54 52 51 53 54 53 57 56 55 55 56 56 56 56 55 58 54 51 54 57 58 59 57 56 60 60 58 57 57 56 56 56
60 60 59 59 60 61 60 61 61 61 61 61 61 60 60 60 60 60 60 58 56 57 57 59 60 61 62 62 62 63 63 62 62 61 61 61 61 61 61 62 62 53 52 51 51 52 53 53 54 54 54 54 54 53 54 54 54 54 51 50 53 55 56 56 55 55 59 59 58 57 56 55 55 57
57 57 57 57 58 59 59 60 59 60 60 60 60 60 60 60 59 59 59 59 58 57 56 57 59 60 60 61 63 63 63 62 61 61 62 62 61 61 60 60 61 54 51 50 51 52 52 52 53 53 53 54 53 53 54 53 53 52 51 51 52 52 53 52 51 52 55 58 58 57 56 55 56 57
57 57 57 56 56 57 57 58 59 60 60 60 60 59 60 60 60 60 59 59 59 57 57 57 58 60 61 61 62 62 61 60 61 61 60 60 60 60 60 60 60 52 51 51 51 51 52 52 52 52 52 53 52 52 53 53 52 52 51 51 51 51 51 51 51 51 52 53 54 58 57 54 57 59
57 56 56 57 56 55 54 54 56 58 59 60 60 60 60 60 60 59 58 59 58 58 57 57 56 58 59 59 60 61 61 59 59 59 59 60 60 58 57 58 58 55 54 54 53 51 51 52 52 52 52 52 52 52 52 52 52 51 51 51 51 51 51 50 50 50 50 50 51 52 54 54 57 60
55 56 56 56 56 55 53 52 52 54 56 58 59 59 60 60 60 58 58 58 58 58 58 57 57 57 58 59 58 60 61 61 60 58 58 57 58 58 58 57 58 55 54 53 52 53 53 53 54 52 52 52 52 52 51 52 52 51 50 50 50 50 50 50 50 50 49 49 49 49 50 52 57 60
54 55 55 55 55 56 55 52 50 50 52 56 57 58 59 60 59 58 58 57 57 57 57 57 56 56 56 57 58 59 60 58 58 59 58 56 56 57 58 59 57 55 55 54 54 53 53 52 53 52 52 52 51 51 51 52 53 51 50 50 49 50 50 49 50 49 49 49 49 49 48 49 51 57
53 53 53 54 55 55 56 53 52 50 50 51 51 52 54 56 58 58 57 57 57 56 56 56 56 56 56 56 56 56 57 56 56 58 58 57 57 57 57 58 58 56 55 55 55 54 54 55 54 54 54 54 53 53 53 53 52 51 49 49 49 49 49 49 49 49 49 49 49 48 48 48 48 50
53 52 52 53 55 53 52 51 48 46 47 49 49 48 49 50 54 56 56 56 56 56 56 56 55 54 54 55 56 56 56 57 58 58 57 56 57 57 56 56 56 57 57 55 54 55 56 56 55 55 55 55 55 56 55 55 53 51 49 49 49 49 49 49 49 49 49 49 49 48 48 47 48 47
51 51 53 52 53 53 53 52 49 47 46 45 45 46 46 47 47 48 50 53 55 55 56 55 55 55 54 55 56 56 56 57 57 57 57 57 56 55 53 52 53 57 57 55 54 54 56 56 54 54 55 54 55 55 55 51 51 50 49 49 49 49 49 48 48 48 48 48 48 48 47 47 47 47
49 49 50 51 51 51 52 53 54 53 49 46 46 46 45 44 43 43 45 47 50 53 54 54 55 54 54 54 55 55 55 55 56 57 57 56 55 55 54 53 52 55 58 55 53 52 55 56 54 52 52 53 54 55 52 49 50 49 49 49 48 48 48 47 48 47 47 47 47 46 45 45 46 45
47 48 48 48 49 49 51 51 52 54 55 51 49 49 49 48 46 43 42 43 47 50 51 51 50 48 50 53 55 56 55 56 55 55 55 55 56 56 55 53 52 55 58 56 53 51 53 54 51 49 48 50 51 51 48 48 49 48 48 48 48 47 47 47 47 47 46 46 46 45 45 45 45 44
47 47 47 46 46 47 48 47 49 52 53 53 53 53 52 52 50 47 45 44 44 47 48 47 46 47 47 48 49 52 54 56 56 55 55 56 55 55 55 55 54 56 58 56 53 49 50 52 50 46 46 48 48 49 48 47 47 47 47 47 47 47 46 47 46 46 46 46 46 45 45 44 44 43
46 46 46 47 47 47 47 45 46 50 51 52 52 51 51 51 50 50 49 47 48 47 47 47 46 46 46 47 47 47 50 53 56 57 57 57 57 56 54 54 55 55 57 57 56 49 48 50 47 45 45 46 46 47 46 46 46 47 47 46 46 46 46 46 46 46 46 45 45 44 44 43 42 42
47 47 46 46 45 45 45 43 42 45 50 50 50 50 50 50 49 49 49 45 45 46 46 46 46 46 45 44 44 45 46 48 51 55 55 56 54 54 53 51 52 53 55 56 54 48 47 48 46 44 45 46 44 45 46 45 46 46 46 46 45 45 45 45 45 45 45 44 44 44 43 42 41 41
46 47 46 45 45 44 44 41 40 42 47 49 48 48 48 49 49 48 49 47 45 44 44 44 43 43 43 44 43 43 43 44 49 52 54 53 54 53 51 50 51 51 52 52 52 49 45 46 45 43 44 44 43 44 44 46 45 46 45 45 45 45 45 44 44 44 44 43 43 43 42 42 42 42
45 46 46 46 44 44 43 40 40 41 47 49 48 47 47 46 46 46 48 49 49 46 46 45 44 44 44 44 45 44 44 44 47 47 44 47 52 52 51 49 50 49 50 49 51 48 44 45 45 43 44 44 44 43 43 44 45 45 44 44 44 44 44 44 44 44 43 43 43 43 42 42 43 45
44 44 45 44 42 43 41 39 40 40 45 46 46 46 47 46 45 45 47 46 47 47 47 47 48 47 47 48 48 47 45 45 47 47 46 46 47 50 50 49 48 47 48 49 52 47 44 44 45 45 43 41 43 44 44 43 44 44 44 44 44 44 44 43 43 43 43 43 43 43 43 43 44 44
43 43 43 44 40 39 39 39 39 40 41 45 45 45 44 43 43 46 47 47 47 47 46 46 47 47 47 47 47 47 47 47 48 46 46 45 46 45 47 48 47 46 46 49 51 47 45 46 45 47 45 41 39 42 43 43 43 44 44 43 42 43 43 43 43 43 43 43 43 43 43 44 44 45
40 41 41 43 41 39 39 39 39 40 39 41 45 43 42 42 42 45 47 46 46 47 46 46 45 45 45 46 46 46 46 46 46 46 45 45 45 44 43 44 45 45 46 46 46 49 45 46 45 45 44 43 42 41 42 42 43 43 43 43 42 43 43 42 42 42 42 42 42 43 43 44 44 45
40 39 40 41 40 39 39 39 39 39 40 40 43 41 39 39 40 46 47 47 47 47 46 45 45 44 44 43 44 45 45 45 46 46 46 45 45 44 44 43 42 42 43 46 44 49 47 46 46 44 43 42 41 42 40 40 42 42 43 43 43 42 43 42 41 41 41 42 42 42 42 42 43 43
38 40 40 42 40 39 39 39 39 39 39 41 40 38 39 39 40 44 46 46 46 46 46 45 44 44 44 43 42 43 44 44 45 45 45 45 45 45 45 45 44 43 44 46 50 49 48 46 45 45 43 43 41 41 41 39 39 42 42 42 42 42 42 42 41 41 41 41 41 42 41 41 41 41
39 39 39 40 39 39 39 39 39 39 39 39 38 39 39 40 41 44 44 44 45 44 44 43 43 43 44 44 43 42 43 44 44 45 45 45 46 45 45 45 44 45 45 47 48 49 48 46 45 45 45 43 41 40 38 40 41 41 39 41 41 41 42 42 41 41 41 42 42 43 43 42 43 43
40 39 38 38 39 38 39 38 40 40 40 38 38 38 39 42 43 43 43 43 44 43 42 42 43 43 43 43 44 45 45 45 45 44 45 45 45 46 46 45 44 44 44 45 47 48 47 46 45 46 45 44 42 41 41 39 40 40 41 40 39 40 41 42 42 41 41 43 43 44 43 43 43 44
39 38 39 38 39 39 39 40 40 40 40 39 39 39 40 41 41 41 41 41 41 41 41 41 41 41 43 43 44 46 46 44 42 42 43 43 43 44 44 44 43 43 43 43 44 46 46 46 46 46 44 44 43 41 40 39 38 40 41 40 39 40 41 41 41 42 42 42 42 41 41 42 43 44
39 40 40 39 38 39 38 38 38 39 39 39 40 40 40 40 40 41 40 39 39 39 40 40 41 42 42 44 44 44 44 43 43 43 43 42 41 42 42 42 41 41 42 43 42 43 44 44 45 46 43 42 43 43 42 42 40 40 40 41 41 38 39 41 42 42 41 40 40 41 42 43 42 42
39 39 39 39 40 39 40 40 40 39 39 38 38 40 39 39 39 40 40 41 40 39 40 40 41 42 42 41 41 42 42 41 42 43 43 42 41 40 41 39 39 40 40 41 41 42 41 43 43 44 44 43 41 41 42 41 39 39 38 38 38 38 40 40 39 40 41 42 41 40 40 41 41 42
39 39 39 37 38 37 36 36 37 38 38 38 39 39 39 38 39 39 39 37 37 37 39 38 38 39 40 40 40 40 40 40 41 42 44 43 41 41 40 38 38 38 38 38 39 40 41 41 41 41 42 42 43 43 41 38 38 39 39 39 39 37 38 40 40 40 42 41 39 39 38 38 39 40
38 36 36 35 35 35 35 35 35 35 36 36 37 37 37 37 38 37 38 37 36 36 37 38 37 37 38 38 38 39 39 40 40 40 40 41 41 40 39 38 38 38 38 38 39 39 40 41 42 42 41 40 40 39 40 38 37 38 39 39 38 37 37 39 40 41 42 41 40 39 38 38 39 41
36 36 36 35 35 35 36 35 35 35 35 35 35 36 37 38 36 36 37 36 36 36 36 37 37 37 36 36 37 37 38 39 40 40 39 40 40 40 40 39 38 38 38 38 38 40 40 40 40 40 39 39 38 39 42 40 38 37 37 37 38 38 37 38 40 41 41 41 42 39 37 38 40 41
35 35 35 35 34 35 35 35 35 35 35 36 36 36 36 36 36 36 36 36 37 36 35 36 36 36 36 36 36 37 37 39 39 38 38 37 37 38 39 39 38 39 39 38 38 39 39 38 38 36 34 34 35 35 35 41 40 39 37 36 37 37 37 38 40 41 42 41 42 41 39 38 39 40
35 34 35 35 35 35 35 35 36 36 36 36 36 36 36 36 36 38 37 37 38 36 36 36 36 36 36 36 37 37 37 38 38 38 37 37 37 37 37 38 37 38 39 39 40 39 40 38 38 36 34 34 32 31 33 36 38 40 40 36 35 37 37 39 39 38 38 41 42 42 40 38 38 39
34 35 35 35 35 35 35 35 36 35 36 36 36 37 37 38 38 38 39 39 37 37 36 37 36 36 36 36 36 37 38 38 39 39 39 38 38 37 37 37 37 36 39 40 41 40 41 40 38 37 36 34 33 33 33 37 37 38 39 40 38 36 38 38 38 37 36 37 38 39 41 38 38 39
34 34 34 34 34 35 35 35 35 35 36 36 36 36 36 38 38 38 37 37 37 37 37 36 36 36 35 36 35 36 37 38 38 39 39 39 38 37 36 36 36 36 37 38 37 38 39 37 38 39 39 37 36 36 37 36 36 38 37 39 39 37 37 37 36 37 37 36 36 37 37 36 38 36
34 34 34 34 35 35 35 35 35 35 35 35 35 36 36 35 36 36 36 36 36 36 36 36 35 36 36 36 36 37 37 36 36 37 37 38 38 38 37 36 36 36 36 37 38 37 38 37 38 38 38 39 39 37 39 38 37 36 38 37 37 39 37 37 37 37 36 38 39 37 37 39 39 39
35 35 35 33 34 34 34 35 35 35 35 35 35 35 36 36 36 36 36 36 35 36 37 36 36 35 35 35 35 37 38 38 38 38 38 38 38 38 37 36 38 38 38 37 38 39 39 38 37 33 37 39 38 42 41 40 38 38 38 38 38 37 37 39 41 39 36 37 39 38 38 38 37 38
35 36 35 34 34 34 34 35 35 35 36 35 35 34 36 35 35 35 35 34 34 35 36 36 36 37 36 36 35 35 37 36 37 37 37 38 39 38 36 38 39 38 38 38 37 38 38 39 39 42 43 41 44 42 37 38 37 38 38 39 39 37 37 37 37 39 40 38 38 35 35 36 38 38
35 36 36 35 34 34 34 34 34 34 34 35 34 33 34 34 35 34 34 34 34 35 35 36 37 37 37 37 37 35 36 36 36 36 35 36 38 40 39 39 38 38 37 37 37 37 37 40 42 42 41 42 40 41 39 38 38 39 39 40 38 39 39 37 37 36 36 36 36 37 40 41 39 37
36 36 37 35 35 35 34 34 34 34 34 32 32 33 32 33 33 32 32 32 33 33 34 35 36 36 36 37 37 38 36 35 36 36 36 35 35 37 39 39 37 37 38 37 38 39 39 40 37 40 43 40 39 40 37 37 39 39 39 36 37 38 39 39 39 38 37 36 35 35 35 36 38 41
36 36 36 37 35 33 33 32 31 33 32 32 32 32 32 32 32 32 31 31 31 31 32 33 34 35 35 36 36 36 36 34 35 36 35 36 36 36 35 36 38 37 38 37 39 39 40 41 41 38 38 36 36 38 37 38 38 38 37 37 36 37 36 37 42 41 40 39 37 34 34 36 36 36
MSLP
1013.54 1013.30 1013.14 1013.02 1012.82 1012.70 1012.58 1012.58 1012.62 1012.62 1012.62 1012.62 1012.62 1012.78 1013.02 1013.10 1013.50 1013.86 1013.86 1013.70 1013.62 1013.38 1013.22 1013.66 1013.50 1013.54 1013.86 1014.14 1014.34 1014.66 1014.86 1015.10 1015.46 1015.82 1016.10 1016.26 1016.42 1016.70 1017.06 1017.30 1017.54 1017.78 1018.06 1018.34 1018.66 1019.02 1019.26 1019.46 1019.62 1019.82 1019.98 1020.18 1020.50 1020.82 1021.14 1021.46 1021.70 1021.94 1022.06 1022.22 1022.42 1022.62 1022.74 1022.82 1022.94 1023.02 1023.14 1023.30 1023.54 1023.86 1024.06 1024.22 1024.50 1024.70
1013.54 1013.30 1013.06 1012.82 1012.70 1012.50 1012.42 1012.38 1012.42 1012.30 1012.22 1012.30 1012.30 1012.46 1012.46 1012.58 1013.02 1013.10 1013.42 1013.14 1012.90 1013.02 1012.98 1012.98 1013.22 1013.26 1013.46 1013.66 1013.98 1014.22 1014.42 1014.58 1014.98 1015.34 1015.78 1015.94 1016.02 1016.30 1016.74 1017.02 1017.22 1017.50 1017.74 1018.02 1018.42 1018.78 1019.06 1019.30 1019.46 1019.54 1019.74 1019.86 1020.18 1020.54 1020.90 1021.26 1021.54 1021.78 1021.94 1022.06 1022.34 1022.54 1022.70 1022.86 1022.94 1023.10 1023.22 1023.38 1023.58 1023.82 1024.02 1024.22 1024.46 1024.70
1013.50 1013.30 1013.10 1012.86 1012.66 1012.42 1012.34 1012.22 1012.14 1012.02 1011.94 1011.90 1011.90 1011.98 1012.06 1012.18 1012.30 1012.62 1012.82 1013.18 1012.42 1012.42 1012.90 1012.70 1012.62 1012.86 1013.02 1013.18 1013.50 1013.78 1014.02 1014.30 1014.62 1014.90 1015.34 1015.50 1015.78 1016.06 1016.42 1016.74 1016.98 1017.22 1017.50 1017.78 1018.14 1018.46 1018.82 1019.10 1019.26 1019.38 1019.46 1019.78 1020.06 1020.38 1020.62 1020.94 1021.30 1021.50 1021.70 1021.90 1022.18 1022.42 1022.66 1022.82 1022.98 1023.10 1023.30 1023.42 1023.58 1023.78 1023.94 1024.18 1024.42 1024.66
1013.62 1013.34 1013.14 1012.94 1012.78 1012.54 1012.34 1012.18 1012.02 1011.90 1011.78 1011.70 1011.70 1011.66 1011.70 1011.74 1011.86 1012.14 1012.50 1012.66 1012.42 1012.34 1012.26 1012.26 1012.50 1012.58 1012.82 1012.98 1013.30 1013.46 1013.66 1013.86 1014.34 1014.62 1014.90 1015.06 1015.46 1015.82 1016.02 1016.42 1016.70 1017.02 1017.30 1017.58 1017.86 1018.14 1018.50 1018.86 1019.06 1019.26 1019.62 1019.82 1020.10 1020.34 1020.62 1020.78 1021.06 1021.38 1021.58 1021.82 1022.06 1022.22 1022.50 1022.78 1022.98 1023.06 1023.26 1023.38 1023.54 1023.74 1023.90 1024.10 1024.38 1024.62
1013.82 1013.54 1013.30 1013.06 1012.86 1012.58 1012.42 1012.22 1012.02 1011.82 1011.62 1011.46 1011.38 1011.42 1011.54 1011.70 1011.74 1011.94 1012.22 1012.50 1012.50 1012.38 1012.26 1012.30 1012.46 1012.46 1012.66 1012.98 1012.90 1013.22 1013.46 1013.74 1014.02 1014.34 1014.66 1015.02 1015.42 1015.50 1015.58 1015.94 1016.38 1016.62 1016.94 1017.30 1017.62 1017.86 1018.18 1018.54 1018.74 1019.06 1019.34 1019.58 1019.82 1020.06 1020.42 1020.70 1020.94 1021.18 1021.38 1021.70 1021.90 1022.10 1022.26 1022.58 1022.90 1023.10 1023.22 1023.38 1023.54 1023.70 1023.86 1024.02 1024.30 1024.58
1013.98 1013.74 1013.50 1013.26 1012.98 1012.70 1012.54 1012.30 1012.18 1011.98 1011.82 1011.62 1011.50 1011.34 1011.34 1011.42 1011.62 1011.70 1012.02 1012.26 1012.54 1012.62 1012.50 1012.46 1012.42 1012.50 1012.50 1012.78 1012.62 1012.90 1013.18 1013.46 1013.74 1014.06 1014.30 1014.58 1014.86 1015.18 1015.38 1015.58 1015.86 1016.18 1016.46 1016.94 1017.30 1017.62 1017.94 1018.30 1018.50 1018.78 1019.02 1019.26 1019.58 1019.86 1020.14 1020.46 1020.74 1021.02 1021.34 1021.58 1021.78 1021.98 1022.14 1022.42 1022.74 1023.06 1023.22 1023.38 1023.54 1023.74 1023.86 1024.02 1024.22 1024.42
1014.46 1014.22 1013.98 1013.70 1013.26 1012.86 1012.66 1012.46 1012.34 1012.14 1011.98 1011.70 1011.58 1011.46 1011.38 1011.42 1011.54 1011.70 1011.86 1012.18 1012.50 1012.62 1012.50 1012.38 1012.50 1012.50 1012.50 1012.54 1012.58 1012.62 1012.70 1012.94 1013.30 1013.74 1013.98 1014.18 1014.50 1014.62 1014.82 1014.94 1015.26 1015.90 1016.30 1016.62 1017.02 1017.38 1017.74 1018.10 1018.30 1018.50 1018.78 1019.02 1019.30 1019.70 1019.98 1020.26 1020.54 1020.82 1021.18 1021.50 1021.74 1021.86 1022.06 1022.30 1022.62 1022.94 1023.18 1023.34 1023.54 1023.74 1023.90 1024.06 1024.18 1024.34
1015.02 1014.82 1014.62 1014.38 1013.94 1013.42 1012.98 1012.70 1012.54 1012.30 1012.14 1011.94 1011.66 1011.50 1011.42 1011.42 1011.50 1011.58 1011.78 1011.94 1012.06 1012.26 1012.50 1012.34 1012.38 1012.38 1012.50 1012.46 1012.38 1012.42 1012.54 1012.82 1013.18 1013.30 1013.54 1013.90 1014.18 1014.34 1014.74 1014.98 1015.22 1015.66 1016.10 1016.46 1016.82 1017.18 1017.54 1017.86 1018.06 1018.26 1018.54 1018.78 1019.10 1019.46 1019.74 1020.06 1020.38 1020.66 1020.98 1021.34 1021.62 1021.82 1021.98 1022.26 1022.58 1022.86 1023.14 1023.34 1023.54 1023.78 1023.98 1024.10 1024.22 1024.34
1015.42 1015.14 1014.86 1014.70 1014.50 1014.14 1013.74 1013.22 1012.74 1012.42 1012.18 1012.02 1011.90 1011.74 1011.62 1011.62 1011.66 1011.66 1011.66 1011.78 1011.98 1012.10 1012.18 1012.02 1011.98 1012.10 1012.34 1012.30 1012.34 1012.34 1012.58 1012.74 1012.86 1013.06 1013.38 1013.54 1013.82 1014.26 1014.62 1014.98 1015.22 1015.46 1015.94 1016.26 1016.62 1016.98 1017.30 1017.62 1017.82 1018.02 1018.26 1018.58 1018.90 1019.22 1019.50 1019.82 1020.10 1020.42 1020.74 1021.06 1021.42 1021.70 1021.90 1022.14 1022.46 1022.78 1023.10 1023.34 1023.54 1023.74 1023.94 1024.10 1024.22 1024.30
1015.70 1015.50 1015.18 1014.94 1014.78 1014.70 1014.58 1014.14 1013.50 1012.86 1012.42 1012.14 1012.02 1011.94 1011.82 1011.82 1011.86 1011.90 1011.90 1011.86 1011.94 1012.06 1011.94 1011.86 1012.06 1012.18 1012.30 1012.30 1012.18 1012.14 1012.30 1012.58 1012.78 1013.02 1013.22 1013.46 1013.70 1014.10 1014.50 1014.74 1015.02 1015.38 1015.86 1016.50 1016.82 1016.94 1017.14 1017.38 1017.58 1017.74 1017.98 1018.26 1018.62 1019.02 1019.30 1019.58 1019.86 1020.18 1020.46 1020.82 1021.18 1021.50 1021.78 1022.02 1022.38 1022.70 1023.06 1023.34 1023.54 1023.74 1023.90 1024.10 1024.18 1024.22
1016.22 1015.90 1015.58 1015.30 1015.02 1014.86 1014.94 1014.86 1014.46 1013.66 1013.06 1012.62 1012.22 1012.14 1012.06 1011.94 1011.90 1011.98 1011.98 1011.98 1011.98 1011.94 1011.94 1012.02 1012.06 1012.14 1012.10 1012.14 1012.22 1012.06 1012.10 1012.30 1012.42 1012.74 1013.26 1013.58 1013.66 1013.86 1014.02 1014.46 1014.82 1015.26 1015.78 1016.14 1016.30 1016.42 1016.74 1017.10 1017.34 1017.50 1017.70 1018.02 1018.34 1018.70 1019.06 1019.34 1019.62 1019.94 1020.22 1020.58 1020.94 1021.34 1021.62 1021.90 1022.26 1022.62 1022.98 1023.30 1023.50 1023.70 1023.86 1023.98 1024.06 1024.10
1016.82 1016.50 1016.18 1015.86 1015.62 1015.30 1015.18 1015.18 1014.94 1014.58 1013.94 1013.14 1012.86 1012.70 1012.38 1012.10 1012.06 1012.14 1012.10 1012.02 1012.02 1012.14 1012.14 1012.10 1012.18 1012.14 1012.18 1012.18 1012.14 1012.10 1012.22 1012.50 1012.62 1012.54 1012.70 1013.14 1013.42 1013.62 1013.78 1013.90 1014.42 1015.06 1015.42 1015.90 1016.38 1016.58 1016.82 1017.02 1017.14 1017.26 1017.42 1017.70 1017.98 1018.38 1018.78 1019.06 1019.34 1019.66 1019.94 1020.30 1020.70 1021.10 1021.50 1021.78 1022.10 1022.50 1022.86 1023.14 1023.42 1023.58 1023.74 1023.86 1023.94 1023.98
1017.42 1017.06 1016.78 1016.46 1016.18 1015.86 1015.54 1015.38 1015.26 1015.22 1014.90 1014.38 1014.10 1013.74 1013.18 1012.62 1012.26 1012.06 1012.02 1012.06 1012.14 1012.18 1012.26 1012.30 1012.22 1012.22 1012.22 1012.18 1012.26 1012.30 1012.30 1012.26 1012.10 1012.42 1012.50 1012.74 1012.90 1013.18 1013.54 1013.78 1014.02 1014.34 1014.90 1015.50 1015.86 1016.22 1016.42 1016.78 1017.02 1017.26 1017.46 1017.54 1017.74 1018.02 1018.38 1018.78 1019.10 1019.42 1019.86 1020.18 1020.42 1020.90 1021.26 1021.62 1021.94 1022.30 1022.66 1022.98 1023.22 1023.42 1023.58 1023.74 1023.86 1023.94
1017.78 1017.74 1017.42 1017.10 1016.58 1016.22 1015.90 1015.62 1015.46 1015.38 1015.38 1015.26 1015.02 1014.78 1014.34 1013.58 1012.94 1012.58 1012.30 1012.18 1012.22 1012.30 1012.34 1012.26 1012.26 1012.30 1012.22 1012.18 1012.22 1012.18 1012.22 1012.18 1012.26 1012.50 1012.58 1012.66 1012.90 1013.30 1013.62 1013.82 1013.98 1014.22 1014.50 1015.02 1015.58 1015.78 1015.98 1016.22 1016.66 1016.98 1017.18 1017.30 1017.50 1017.78 1018.22 1018.50 1018.90 1019.30 1019.66 1019.98 1020.30 1020.66 1021.06 1021.42 1021.74 1022.14 1022.50 1022.82 1023.06 1023.26 1023.46 1023.62 1023.78 1023.98
1018.46 1018.14 1017.82 1017.58 1017.10 1016.66 1016.26 1015.98 1015.74 1015.54 1015.54 1015.54 1015.34 1015.22 1015.14 1014.86 1014.42 1013.98 1013.62 1013.18 1012.66 1012.38 1012.34 1012.26 1012.26 1012.22 1012.22 1012.18 1012.22 1012.18 1012.10 1012.06 1012.14 1012.18 1012.34 1012.50 1012.90 1013.14 1013.42 1013.70 1014.10 1014.06 1014.14 1014.62 1015.06 1015.50 1015.66 1015.86 1016.30 1016.66 1016.82 1017.06 1017.30 1017.54 1017.82 1018.14 1018.54 1018.94 1019.34 1019.74 1020.10 1020.54 1020.86 1021.22 1021.62 1021.98 1022.34 1022.66 1022.94 1023.18 1023.42 1023.58 1023.82 1024.02
1019.14 1018.86 1018.38 1018.06 1017.74 1017.42 1017.10 1016.58 1016.14 1015.78 1015.70 1015.62 1015.50 1015.38 1015.26 1015.26 1015.26 1015.14 1015.02 1014.66 1013.90 1013.42 1013.02 1012.86 1012.90 1012.86 1012.74 1012.58 1012.50 1012.38 1012.34 1012.30 1012.26 1012.18 1012.22 1012.38 1012.58 1012.82 1012.98 1013.18 1013.42 1013.62 1013.86 1014.34 1014.98 1015.50 1015.70 1015.70 1015.94 1016.42 1016.94 1017.06 1017.10 1017.26 1017.54 1017.98 1018.30 1018.66 1019.10 1019.50 1019.94 1020.38 1020.70 1021.10 1021.46 1021.86 1022.22 1022.58 1022.86 1023.14 1023.38 1023.58 1023.78 1023.98
1019.98 1019.58 1019.18 1018.78 1018.46 1018.22 1017.74 1017.34 1016.86 1016.38 1016.02 1015.86 1015.78 1015.62 1015.46 1015.34 1015.38 1015.38 1015.18 1015.22 1015.26 1014.70 1014.30 1014.18 1014.22 1014.58 1014.14 1013.22 1012.90 1012.62 1012.42 1012.42 1012.50 1012.42 1012.30 1012.26 1012.34 1012.34 1012.38 1012.78 1013.30 1013.50 1013.58 1014.14 1014.82 1015.38 1015.78 1015.74 1016.10 1016.70 1017.26 1017.34 1017.22 1017.50 1017.66 1017.78 1018.14 1018.58 1018.94 1019.34 1019.78 1020.18 1020.54 1020.90 1021.30 1021.70 1022.06 1022.38 1022.66 1022.90 1023.14 1023.38 1023.62 1023.82
1020.54 1020.26 1019.94 1019.58 1019.30 1018.90 1018.50 1018.18 1017.62 1017.10 1016.70 1016.38 1016.10 1015.90 1015.74 1015.74 1015.66 1015.58 1015.66 1015.66 1015.66 1015.50 1015.58 1015.46 1015.50 1015.46 1015.10 1014.82 1014.42 1013.66 1013.02 1012.62 1012.42 1012.42 1012.30 1012.30 1012.34 1012.42 1012.26 1012.46 1012.78 1013.14 1013.42 1013.78 1014.38 1015.38 1015.90 1015.74 1016.34 1017.14 1017.66 1017.54 1017.46 1017.70 1017.78 1017.94 1018.18 1018.54 1018.86 1019.26 1019.62 1020.02 1020.38 1020.74 1021.14 1021.50 1021.86 1022.14 1022.46 1022.70 1022.98 1023.26 1023.54 1023.78
1021.14 1020.98 1020.66 1020.34 1020.02 1019.62 1019.22 1019.14 1018.62 1017.82 1017.42 1016.98 1016.74 1016.62 1016.50 1016.38 1016.34 1016.22 1016.26 1016.38 1016.22 1016.06 1016.10 1016.06 1015.98 1015.86 1015.54 1015.18 1014.78 1014.34 1013.74 1013.34 1012.74 1012.34 1012.10 1011.98 1011.94 1012.06 1012.42 1012.70 1012.98 1013.34 1013.50 1013.78 1014.14 1015.18 1016.10 1016.18 1016.70 1017.50 1017.62 1017.66 1017.94 1018.02 1018.02 1018.02 1018.26 1018.54 1018.86 1019.22 1019.58 1019.94 1020.30 1020.66 1021.02 1021.42 1021.78 1022.14 1022.42 1022.74 1023.02 1023.26 1023.54 1023.74
1021.62 1021.42 1021.22 1020.94 1020.66 1020.34 1020.02 1019.74 1019.06 1018.58 1017.98 1017.58 1017.50 1017.46 1017.34 1017.10 1016.94 1016.94 1017.06 1016.98 1016.74 1016.70 1016.66 1016.42 1016.26 1016.18 1016.10 1015.66 1015.30 1014.82 1014.22 1013.74 1013.26 1012.62 1012.42 1012.26 1012.42 1012.50 1012.22 1012.50 1012.94 1013.14 1013.46 1013.70 1014.18 1015.46 1016.46 1016.58 1016.74 1017.66 1017.94 1018.14 1018.30 1018.30 1018.22 1018.22 1018.26 1018.58 1018.94 1019.34 1019.62 1019.98 1020.34 1020.70 1021.06 1021.42 1021.78 1022.14 1022.46 1022.78 1023.06 1023.34 1023.58 1023.82
1022.18 1021.94 1021.78 1021.54 1021.22 1020.90 1020.74 1020.54 1019.78 1019.14 1018.42 1018.26 1018.30 1018.18 1018.06 1017.86 1017.62 1017.74 1017.54 1017.30 1017.14 1017.06 1016.82 1016.54 1016.34 1016.14 1015.86 1015.50 1015.18 1014.90 1014.62 1014.30 1013.74 1013.30 1013.02 1012.86 1012.58 1012.38 1012.50 1012.90 1013.14 1013.30 1013.66 1014.02 1014.30 1015.46 1016.66 1017.06 1017.30 1018.10 1018.50 1018.62 1018.66 1018.66 1018.70 1018.58 1018.62 1018.78 1019.06 1019.38 1019.74 1020.06 1020.42 1020.74 1021.10 1021.42 1021.78 1022.14 1022.50 1022.86 1023.18 1023.50 1023.78 1024.02
1022.70 1022.50 1022.30 1022.06 1021.86 1021.58 1021.50 1021.10 1020.50 1019.94 1019.22 1018.94 1018.90 1018.78 1018.54 1018.26 1018.30 1018.26 1018.10 1017.74 1017.54 1017.38 1017.14 1016.90 1016.78 1016.54 1016.26 1015.94 1015.62 1015.38 1015.14 1014.86 1014.54 1014.54 1015.10 1014.54 1013.30 1012.58 1012.62 1012.94 1013.22 1013.78 1014.10 1014.38 1014.42 1015.38 1016.70 1017.38 1017.50 1018.02 1018.66 1018.66 1019.06 1019.14 1019.06 1018.98 1018.98 1019.18 1019.46 1019.70 1019.98 1020.26 1020.62 1020.98 1021.30 1021.42 1021.74 1022.18 1022.58 1022.94 1023.26 1023.54 1023.82 1024.10
1023.18 1022.98 1022.74 1022.62 1022.50 1022.30 1022.06 1021.54 1021.14 1020.70 1020.18 1020.02 1019.90 1019.74 1019.14 1018.90 1018.98 1019.18 1018.86 1018.46 1018.06 1017.70 1017.38 1017.34 1017.14 1016.94 1016.78 1016.46 1016.14 1015.98 1015.82 1015.66 1015.58 1015.58 1015.46 1014.90 1014.50 1013.78 1013.02 1013.22 1013.78 1014.22 1014.50 1014.74 1014.42 1015.18 1016.94 1017.18 1017.38 1017.18 1017.90 1019.14 1019.62 1019.58 1019.62 1019.62 1019.58 1019.74 1019.98 1020.26 1020.54 1020.82 1020.90 1021.18 1021.66 1021.78 1021.82 1022.26 1022.66 1023.02 1023.34 1023.70 1023.94 1024.34
1023.70 1023.50 1023.26 1023.02 1022.98 1022.70 1022.42 1022.10 1021.74 1021.42 1021.02 1020.70 1020.62 1020.26 1020.18 1020.06 1020.02 1019.78 1019.46 1019.18 1018.86 1018.54 1018.42 1018.34 1018.06 1017.90 1017.62 1017.22 1016.90 1016.62 1016.46 1016.42 1016.38 1016.26 1015.98 1015.74 1015.42 1015.42 1014.98 1014.38 1014.30 1014.50 1015.06 1014.86 1014.82 1015.18 1016.42 1016.46 1016.90 1016.94 1016.90 1017.78 1019.26 1020.10 1020.14 1020.26 1020.18 1020.26 1020.42 1020.54 1020.82 1021.34 1021.46 1021.62 1021.98 1022.22 1022.26 1022.50 1022.98 1023.38 1023.66 1023.86 1023.86 1024.22
1024.46 1024.22 1023.98 1023.70 1023.50 1023.14 1022.86 1022.58 1022.26 1021.98 1021.70 1021.38 1021.18 1021.18 1021.14 1021.18 1020.86 1020.14 1019.78 1019.58 1019.26 1019.06 1018.94 1018.78 1018.58 1018.42 1018.10 1017.90 1017.70 1017.54 1017.42 1017.34 1017.14 1016.90 1016.74 1016.54 1016.38 1016.22 1016.26 1015.94 1015.42 1015.38 1015.58 1015.66 1015.42 1015.26 1016.06 1016.34 1016.70 1016.90 1017.38 1017.90 1018.82 1019.66 1020.46 1020.50 1020.70 1020.74 1020.98 1020.98 1021.10 1021.66 1021.78 1022.18 1022.38 1022.70 1022.86 1023.10 1023.42 1023.62 1023.78 1023.90 1024.06 1024.22
1024.98 1024.90 1024.66 1024.34 1024.06 1023.58 1023.26 1022.98 1022.78 1022.50 1022.22 1021.98 1021.74 1021.78 1021.54 1021.18 1020.74 1020.42 1020.18 1019.90 1019.66 1019.46 1019.26 1019.06 1018.90 1018.82 1018.74 1018.66 1018.50 1018.26 1018.10 1018.06 1017.86 1017.66 1017.42 1017.30 1017.18 1017.10 1016.94 1016.86 1016.54 1016.06 1016.02 1015.74 1015.54 1015.46 1015.74 1016.26 1016.14 1016.54 1017.46 1017.90 1019.30 1019.14 1019.86 1020.70 1021.10 1021.30 1021.38 1021.62 1021.70 1022.02 1022.02 1022.30 1022.62 1023.10 1023.38 1023.62 1023.82 1023.94 1024.14 1024.30 1024.58 1024.78
1025.62 1025.30 1025.02 1024.70 1024.34 1024.02 1023.70 1023.42 1023.18 1022.98 1022.70 1022.42 1022.42 1022.18 1021.82 1021.54 1021.22 1020.78 1020.58 1020.38 1020.10 1019.94 1019.74 1019.58 1019.54 1019.46 1019.34 1019.22 1019.18 1019.06 1018.82 1018.62 1018.46 1018.26 1018.10 1017.90 1017.70 1017.58 1017.46 1017.34 1017.14 1017.02 1016.66 1016.10 1015.62 1015.62 1015.86 1016.42 1016.78 1016.74 1016.90 1017.26 1018.38 1019.62 1019.74 1020.30 1021.34 1021.58 1021.86 1022.18 1022.26 1022.38 1022.50 1022.62 1023.10 1023.54 1023.74 1023.94 1024.22 1024.34 1024.54 1024.82 1025.02 1025.18
1025.90 1025.66 1025.42 1025.10 1024.74 1024.42 1024.10 1023.82 1023.54 1023.34 1023.18 1023.14 1022.90 1022.54 1022.26 1021.90 1021.62 1021.34 1021.10 1020.90 1020.74 1020.50 1020.30 1020.18 1020.14 1020.10 1019.98 1019.78 1019.70 1019.62 1019.42 1019.18 1018.90 1018.62 1018.42 1018.22 1017.98 1017.74 1017.46 1017.22 1017.06 1016.90 1016.58 1016.30 1016.06 1015.90 1016.06 1016.58 1016.98 1017.26 1017.62 1017.54 1017.78 1018.54 1019.94 1020.90 1021.22 1021.74 1022.14 1022.42 1022.62 1022.98 1023.18 1023.26 1023.62 1023.90 1024.14 1024.26 1024.42 1024.58 1024.74 1025.10 1025.30 1025.34
1026.02 1025.78 1025.50 1025.22 1024.98 1024.78 1024.50 1024.22 1023.94 1023.66 1023.58 1023.50 1023.30 1023.10 1022.78 1022.42 1022.14 1021.94 1021.78 1021.62 1021.30 1021.06 1021.10 1021.02 1020.86 1020.66 1020.54 1020.38 1020.26 1019.94 1019.62 1019.38 1019.10 1018.86 1018.66 1018.46 1018.30 1018.06 1017.86 1017.74 1017.70 1017.58 1017.30 1017.02 1016.70 1016.62 1016.62 1016.62 1017.06 1017.42 1017.78 1018.26 1018.70 1019.70 1019.86 1021.06 1021.54 1022.06 1022.26 1022.50 1023.14 1023.58 1023.66 1023.78 1023.94 1024.22 1024.50 1024.58 1024.70 1024.78 1024.94 1025.14 1025.38 1025.50
1025.98 1025.82 1025.62 1025.42 1025.22 1025.02 1024.94 1024.66 1024.46 1024.34 1024.22 1023.90 1023.66 1023.50 1023.26 1023.02 1022.90 1022.70 1022.46 1022.22 1021.98 1021.90 1021.74 1021.58 1021.46 1021.34 1021.02 1020.66 1020.38 1019.98 1019.74 1019.66 1019.78 1019.58 1019.30 1019.10 1018.98 1018.78 1018.46 1018.14 1018.26 1018.26 1018.14 1017.94 1017.62 1017.42 1017.42 1017.58 1017.66 1017.78 1018.30 1018.82 1019.02 1020.06 1020.90 1021.58 1022.58 1022.70 1022.78 1023.06 1023.54 1023.74 1023.98 1024.10 1024.34 1024.50 1024.66 1024.90 1025.10 1025.26 1025.46 1025.50 1025.58 1025.62
1026.38 1026.18 1026.06 1025.98 1025.74 1025.50 1025.26 1025.10 1025.02 1024.86 1024.58 1024.26 1024.06 1023.90 1023.82 1023.70 1023.50 1023.34 1023.14 1023.06 1022.86 1022.66 1022.34 1022.02 1021.86 1021.66 1021.38 1020.98 1020.54 1020.30 1020.18 1020.14 1020.18 1020.06 1019.82 1019.70 1019.74 1019.46 1019.30 1019.26 1019.26 1019.10 1018.98 1018.74 1018.58 1018.38 1018.18 1018.30 1018.50 1018.38 1018.94 1019.62 1020.02 1020.50 1021.10 1021.50 1022.26 1022.78 1023.18 1023.30 1023.22 1023.46 1024.26 1024.42 1024.58 1024.78 1024.98 1025.22 1025.42 1025.58 1025.70 1025.74 1025.78 1025.82
1027.02 1026.78 1026.54 1026.26 1026.14 1025.90 1025.58 1025.42 1025.22 1025.10 1025.02 1024.98 1024.82 1024.58 1024.46 1024.26 1024.02 1023.78 1023.50 1023.14 1023.10 1023.14 1022.94 1022.58 1022.22 1021.94 1021.66 1021.42 1021.34 1020.98 1020.78 1020.78 1020.70 1020.50 1020.22 1020.22 1020.22 1020.14 1019.86 1019.78 1020.06 1019.98 1019.82 1019.62 1019.42 1019.30 1019.18 1019.22 1019.18 1019.42 1019.70 1020.02 1020.62 1021.26 1021.66 1022.10 1022.54 1022.90 1023.34 1023.62 1023.78 1024.18 1024.34 1024.54 1024.86 1025.18 1025.22 1025.30 1025.62 1025.98 1026.18 1026.14 1026.10 1026.14
1027.26 1026.90 1026.66 1026.66 1026.54 1026.54 1026.46 1026.22 1026.02 1025.90 1025.66 1025.46 1025.30 1025.14 1024.94 1024.82 1024.54 1024.34 1024.18 1024.10 1024.02 1023.90 1023.34 1023.02 1022.82 1022.58 1022.26 1022.02 1021.90 1021.54 1021.26 1021.34 1021.26 1020.98 1020.62 1020.70 1020.74 1020.74 1020.70 1021.06 1021.18 1021.06 1020.94 1020.86 1020.70 1020.54 1020.38 1020.38 1020.26 1020.30 1020.58 1020.94 1021.26 1021.54 1021.90 1022.74 1023.38 1023.54 1023.66 1023.78 1023.86 1024.38 1024.78 1024.86 1024.90 1025.22 1025.34 1025.46 1026.06 1026.30 1026.54 1026.74 1026.66 1026.46
1027.34 1027.34 1027.34 1027.46 1027.42 1027.26 1027.06 1026.90 1026.82 1026.70 1026.50 1026.22 1025.86 1025.70 1025.50 1025.34 1025.14 1024.98 1024.82 1024.78 1024.74 1024.38 1023.94 1023.70 1023.42 1023.26 1022.94 1022.66 1022.54 1022.18 1022.06 1021.90 1021.74 1021.62 1021.38 1021.38 1021.30 1021.38 1021.54 1021.70 1021.90 1021.86 1021.78 1021.74 1021.62 1021.50 1021.26 1021.10 1020.98 1021.06 1021.18 1021.82 1022.38 1022.90 1023.14 1023.34 1023.90 1024.06 1023.98 1024.02 1024.22 1024.62 1025.14 1025.06 1025.14 1025.18 1025.18 1025.34 1025.82 1026.30 1026.66 1026.90 1027.06 1026.86
1028.06 1028.06 1027.90 1027.94 1027.78 1027.74 1027.58 1027.50 1027.50 1027.34 1027.06 1026.90 1026.62 1026.38 1026.10 1025.86 1025.78 1025.58 1025.34 1025.34 1025.14 1024.78 1024.42 1024.06 1023.98 1023.90 1023.74 1023.50 1023.30 1022.86 1022.70 1022.54 1022.34 1022.14 1022.10 1022.02 1022.06 1022.10 1022.10 1022.22 1022.38 1022.42 1022.38 1022.38 1022.38 1022.18 1021.90 1021.70 1021.58 1021.90 1022.38 1022.70 1023.06 1023.58 1023.90 1024.14 1024.18 1024.50 1024.66 1024.94 1025.02 1025.06 1025.34 1025.42 1025.38 1025.42 1025.50 1025.74 1025.70 1026.34 1026.98 1027.10 1027.18 1027.30
1028.70 1028.66 1028.50 1028.38 1028.38 1028.18 1027.94 1027.98 1027.82 1027.66 1027.54 1027.34 1027.18 1026.98 1026.58 1026.38 1026.30 1026.14 1025.94 1025.82 1025.50 1025.18 1024.94 1024.70 1024.42 1024.30 1024.26 1024.10 1023.82 1023.54 1023.18 1022.90 1022.82 1022.82 1022.74 1022.74 1022.82 1022.82 1022.74 1022.98 1023.02 1022.98 1022.98 1023.06 1023.10 1022.94 1022.82 1022.90 1022.94 1023.34 1023.74 1024.06 1024.06 1024.26 1024.70 1024.74 1024.70 1024.74 1024.66 1025.30 1025.50 1025.46 1025.62 1025.66 1025.66 1025.70 1025.74 1025.90 1025.82 1025.90 1026.38 1026.90 1027.38 1027.54
1028.98 1029.02 1028.94 1028.82 1028.74 1028.62 1028.46 1028.38 1028.18 1027.98 1027.90 1027.70 1027.46 1027.34 1027.22 1027.02 1026.82 1026.50 1026.34 1025.90 1025.62 1025.62 1025.54 1025.22 1024.98 1024.86 1024.66 1024.50 1024.14 1023.94 1023.74 1023.42 1023.26 1023.34 1023.34 1023.34 1023.38 1023.42 1023.34 1023.46 1023.62 1023.62 1023.42 1023.54 1023.58 1023.58 1023.46 1023.66 1023.78 1023.94 1024.26 1024.50 1024.78 1025.18 1025.54 1025.38 1025.18 1025.18 1025.18 1025.18 1025.66 1025.82 1025.74 1025.78 1025.78 1026.02 1026.26 1026.14 1026.06 1025.98 1026.30 1026.82 1027.34 1027.70
1029.30 1029.30 1029.18 1029.14 1029.10 1028.94 1028.86 1028.78 1028.58 1028.34 1028.22 1028.06 1027.86 1027.62 1027.42 1027.22 1027.02 1026.78 1026.42 1026.10 1026.10 1025.94 1025.74 1025.50 1025.38 1025.18 1025.14 1025.02 1024.58 1024.26 1024.06 1024.02 1023.82 1023.66 1023.70 1023.62 1023.58 1023.78 1023.86 1023.82 1024.02 1024.06 1024.06 1023.98 1023.98 1024.06 1024.18 1024.30 1024.42 1024.50 1024.30 1024.74 1025.18 1025.30 1025.46 1025.50 1025.34 1025.34 1025.54 1025.42 1025.30 1025.86 1025.94 1025.86 1025.94 1026.10 1026.54 1026.74 1026.66 1026.82 1026.74 1026.94 1027.42 1027.78
1029.70 1029.62 1029.58 1029.46 1029.38 1029.26 1029.06 1029.06 1028.94 1028.74 1028.58 1028.42 1028.26 1028.14 1027.86 1027.50 1027.30 1027.02 1026.82 1026.78 1026.58 1026.34 1026.10 1025.90 1025.82 1025.70 1025.50 1025.46 1025.30 1025.06 1024.58 1024.26 1024.10 1024.14 1024.06 1024.06 1024.02 1024.02 1024.14 1024.14 1024.14 1024.22 1024.18 1024.30 1024.50 1024.42 1024.38 1024.46 1024.58 1024.62 1024.74 1024.78 1024.66 1024.74 1024.94 1025.30 1025.62 1025.82 1025.78 1025.66 1025.62 1025.70 1025.98 1025.94 1026.30 1026.62 1026.58 1026.86 1027.38 1027.38 1027.62 1027.82 1027.90 1028.06
1029.90 1029.90 1029.86 1029.70 1029.54 1029.46 1029.26 1029.18 1029.02 1029.02 1028.86 1028.82 1028.66 1028.50 1028.22 1027.94 1027.74 1027.50 1027.30 1027.14 1026.90 1026.70 1026.54 1026.42 1026.22 1025.90 1025.70 1025.74 1025.58 1025.30 1025.14 1025.18 1025.10 1024.86 1024.50 1024.26 1024.26 1024.26 1024.30 1024.30 1024.26 1024.26 1024.22 1024.46 1024.62 1024.62 1024.54 1024.46 1024.54 1024.66 1024.66 1024.54 1024.62 1024.78 1025.02 1025.22 1025.66 1025.86 1025.82 1025.90 1025.94 1025.74 1025.82 1025.94 1026.26 1026.54 1026.94 1027.14 1027.10 1027.22 1027.74 1027.78 1027.82 1028.06
1029.78 1029.66 1029.82 1029.90 1029.70 1029.62 1029.46 1029.38 1029.34 1029.14 1028.98 1028.94 1028.74 1028.54 1028.38 1028.26 1027.98 1027.86 1027.78 1027.58 1027.30 1027.02 1026.90 1026.74 1026.62 1026.50 1026.34 1026.22 1025.98 1025.58 1025.26 1025.30 1025.30 1025.34 1025.14 1024.70 1024.54 1024.54 1024.58 1024.54 1024.58 1024.62 1024.38 1024.42 1024.62 1024.62 1024.50 1024.98 1025.10 1025.18 1025.02 1024.82 1024.86 1024.86 1024.86 1025.02 1025.38 1025.62 1025.74 1025.98 1026.02 1026.02 1026.06 1025.98 1025.90 1026.06 1026.62 1027.18 1027.10 1027.22 1027.54 1027.78 1027.94 1028.10
1029.86 1029.78 1029.82 1029.90 1029.78 1029.74 1029.74 1029.50 1029.46 1029.26 1029.10 1029.06 1028.94 1028.74 1028.50 1028.34 1028.26 1028.14 1027.82 1027.70 1027.54 1027.42 1027.22 1027.02 1026.90 1026.66 1026.50 1026.46 1026.38 1026.06 1025.50 1025.54 1025.42 1025.26 1025.30 1025.22 1024.90 1025.02 1025.02 1024.78 1024.70 1024.86 1024.74 1024.78 1024.78 1024.86 1025.18 1025.18 1025.14 1024.98 1024.98 1024.94 1024.74 1024.66 1025.26 1025.38 1025.58 1025.74 1025.86 1025.94 1026.06 1026.22 1026.18 1026.18 1026.26 1026.30 1026.46 1026.66 1026.86 1027.38 1027.94 1028.18 1028.10 1028.06
1029.86 1029.82 1029.74 1029.82 1029.86 1029.82 1029.82 1029.74 1029.66 1029.54 1029.34 1029.26 1029.10 1029.06 1028.78 1028.54 1028.42 1028.26 1028.22 1028.14 1028.06 1027.82 1027.70 1027.42 1027.22 1026.94 1026.78 1026.62 1026.58 1026.54 1026.18 1025.70 1025.66 1025.42 1025.38 1025.34 1025.10 1024.74 1024.78 1025.02 1025.06 1025.06 1025.02 1025.10 1025.42 1025.38 1025.22 1025.14 1025.02 1024.94 1024.98 1024.90 1025.10 1024.98 1025.30 1025.62 1025.66 1025.70 1025.82 1025.94 1026.18 1026.34 1026.50 1026.58 1026.54 1026.70 1026.86 1027.06 1027.14 1027.14 1027.10 1027.06 1027.46 1027.78
1029.94 1029.90 1029.86 1029.90 1029.82 1029.82 1029.86 1029.82 1029.70 1029.74 1029.58 1029.42 1029.30 1029.18 1029.06 1028.86 1028.70 1028.74 1028.78 1028.66 1028.50 1028.34 1028.14 1027.86 1027.62 1027.42 1027.22 1026.98 1026.74 1026.46 1026.54 1026.50 1026.18 1025.54 1025.38 1025.58 1025.62 1025.38 1025.14 1025.02 1025.02 1025.18 1025.34 1025.54 1025.46 1025.50 1025.50 1025.38 1025.30 1025.10 1024.90 1025.22 1025.42 1025.46 1025.66 1025.78 1025.78 1025.86 1025.94 1026.18 1026.34 1026.30 1026.46 1026.74 1026.74 1026.78 1026.86 1027.06 1027.26 1027.34 1027.34 1027.26 1027.18 1027.06
1029.98 1029.94 1029.94 1029.86 1029.86 1029.86 1029.86 1029.86 1029.78 1029.70 1029.62 1029.46 1029.34 1029.22 1029.18 1029.06 1028.94 1028.90 1028.82 1028.82 1028.74 1028.74 1028.42 1028.22 1027.98 1027.78 1027.58 1027.34 1027.06 1026.82 1026.82 1026.82 1026.54 1026.06 1025.78 1025.66 1025.66 1025.50 1025.46 1025.46 1025.14 1025.14 1025.34 1025.54 1025.38 1025.54 1025.46 1025.38 1025.42 1025.50 1025.58 1025.82 1025.78 1025.78 1025.94 1025.78 1025.78 1025.90 1025.98 1026.06 1026.10 1026.42 1026.58 1026.62 1026.54 1026.66 1026.82 1026.98 1027.38 1027.46 1027.34 1027.30 1027.22 1027.14
Wind_Speed
8 8 9 9 8 8 7 8 8 8 8 8 8 8 9 7 7 7 7 8 9 8 10 9 10 12 10 10 10 10 10 12 14 11 11 9 8 15 18 17 17 16 17 16 15 13 15 16 13 15 13 16 16 16 15 15 14 13 12 14 10 11 12 13 13 15 17 19 16 12 15 15 14 15
7 8 8 7 7 7 7 7 7 8 8 8 9 9 9 8 9 8 8 7 8 6 8 6 6 10 11 11 10 10 10 13 15 11 11 10 10 16 18 17 17 17 17 17 15 15 15 15 14 14 14 17 18 18 17 16 15 14 17 17 9 12 13 12 13 14 16 12 14 15 14 15 15 14
6 8 8 7 7 7 7 7 7 8 8 9 9 9 9 9 11 9 7 8 4 6 8 8 5 8 11 11 11 10 10 12 15 11 11 11 13 16 16 18 17 17 17 16 15 14 15 16 16 15 15 15 16 18 18 15 15 20 18 14 11 14 14 14 14 17 14 14 14 14 12 14 14 13
7 7 8 7 6 6 6 7 7 7 7 7 7 8 8 9 10 9 8 10 8 3 5 6 8 7 8 10 9 10 10 11 17 11 12 13 15 12 8 18 18 17 16 16 15 17 15 16 16 16 12 13 15 15 16 17 19 18 16 12 13 15 16 15 15 15 15 14 14 13 14 13 13 13
8 8 7 8 8 7 7 6 6 6 8 9 8 7 7 7 7 8 8 7 7 1 1 3 5 6 7 8 11 11 9 8 10 11 9 10 10 11 9 8 17 18 17 17 17 17 16 15 16 16 16 16 18 19 18 17 17 18 16 14 15 16 17 16 15 13 15 14 13 13 13 13 13 13
9 8 9 9 9 8 7 8 7 6 6 5 5 6 7 7 6 6 5 6 5 4 0 2 2 4 7 7 9 10 11 10 9 10 10 9 11 10 9 8 9 20 18 18 17 17 16 15 16 16 18 17 16 18 19 18 18 17 14 15 16 17 17 17 15 14 15 13 13 13 13 13 14 14
11 12 11 11 10 8 7 7 7 7 7 6 6 4 2 4 4 5 6 4 4 5 3 3 3 4 5 8 7 10 10 10 10 11 11 11 9 10 11 11 8 15 17 18 17 17 16 15 15 17 18 17 17 17 18 18 18 17 15 15 16 17 17 17 15 15 15 14 13 13 13 13 13 15
11 11 11 12 12 11 9 7 6 6 6 6 6 4 3 3 4 4 5 6 5 4 4 3 5 4 4 5 5 7 8 8 8 10 9 8 9 9 7 8 8 12 17 17 17 16 16 16 16 17 18 17 17 18 19 18 17 16 16 16 16 16 16 16 15 15 14 14 14 14 12 12 13 15
10 10 11 10 11 11 10 10 9 8 9 7 4 4 2 2 2 3 5 6 4 4 6 4 3 3 4 5 6 7 7 6 7 9 7 9 9 8 7 7 6 10 16 17 17 16 16 16 16 17 17 17 17 18 19 18 18 17 17 17 17 16 16 16 16 16 14 14 13 14 14 12 13 15
10 9 11 11 12 12 13 12 10 10 9 8 7 5 2 2 1 2 2 2 3 4 5 3 2 2 4 4 5 6 8 6 6 5 5 6 7 8 7 6 5 7 9 7 9 12 14 16 16 17 17 17 18 18 18 19 19 18 18 18 17 17 16 16 16 15 14 14 14 13 13 12 13 15
11 11 11 12 13 12 12 13 12 10 9 9 8 5 4 2 3 4 4 3 4 4 2 2 3 4 3 2 3 4 7 6 8 8 5 4 5 7 9 8 6 6 7 9 13 12 12 14 13 16 17 18 18 18 18 18 18 18 18 18 17 17 16 16 16 15 14 14 14 14 14 13 13 15
12 13 13 12 12 13 11 11 11 11 9 7 8 8 6 5 2 2 2 2 1 2 3 3 3 3 3 2 0 2 4 4 3 7 9 9 9 8 8 9 10 9 8 8 8 7 9 11 14 16 18 19 19 19 17 19 18 19 19 18 18 17 16 16 16 16 15 15 14 14 14 14 13 13
11 12 11 11 13 16 19 18 16 15 14 9 9 8 7 7 5 2 0 1 2 2 4 4 3 4 4 3 4 4 5 8 7 5 6 7 7 8 8 6 6 9 12 7 7 8 8 8 9 7 8 12 16 16 18 15 19 17 15 17 18 17 16 16 16 16 16 15 15 15 15 14 13 12
12 11 10 12 24 19 19 17 16 17 17 17 13 9 9 8 7 6 4 2 2 2 3 3 2 3 4 4 5 5 3 2 3 7 7 8 7 7 5 5 4 8 8 8 10 9 7 9 9 9 9 8 12 9 11 10 12 15 18 17 17 17 16 16 16 16 16 16 15 15 14 14 13 12
14 12 11 10 15 17 17 15 16 15 16 15 16 19 19 18 13 9 9 9 6 2 3 2 2 3 4 5 4 5 4 5 6 8 8 7 7 8 10 9 2 6 10 9 9 9 8 8 10 9 8 8 8 7 10 14 18 18 18 17 17 16 16 15 15 15 15 15 14 14 13 12 11 11
11 12 12 11 9 12 17 13 12 13 14 14 15 16 18 20 20 17 13 10 10 10 7 7 6 6 5 4 3 4 1 3 3 5 7 8 10 9 8 6 7 5 8 8 8 6 4 7 7 7 4 5 6 8 11 15 17 18 18 17 16 15 15 14 14 14 14 13 13 13 12 11 11 11
12 11 11 12 12 11 22 15 13 12 12 13 15 15 15 18 21 20 21 20 14 9 9 9 10 11 9 8 6 3 2 1 4 3 5 6 7 8 9 7 4 7 8 8 7 7 5 5 7 6 3 2 4 5 9 15 16 16 16 16 15 15 15 15 14 14 14 14 13 13 13 13 13 12
12 12 11 12 12 12 13 13 13 11 11 12 13 13 14 13 16 18 20 19 20 16 10 9 10 9 9 8 10 12 8 4 5 5 6 5 5 7 7 5 6 7 7 7 7 4 2 5 8 5 2 2 4 3 7 13 13 15 15 15 16 16 15 15 15 14 14 14 14 13 12 12 11 10
12 12 10 11 14 15 16 14 15 12 12 12 12 13 14 14 14 15 15 12 10 11 10 10 10 11 11 10 11 12 10 10 7 5 5 5 6 6 6 6 7 7 6 6 8 6 3 3 6 4 4 4 4 3 5 11 13 14 14 15 15 15 15 15 15 14 13 12 12 12 12 12 11 11
11 11 12 10 12 13 12 17 22 17 11 13 13 14 13 12 13 14 13 16 16 13 10 9 9 9 11 13 13 13 12 11 11 6 3 3 4 4 5 6 5 6 5 5 7 5 3 1 6 3 4 5 5 5 4 6 11 12 12 12 13 14 14 14 14 14 13 13 13 12 12 11 11 11
10 12 13 10 10 12 12 18 21 20 16 12 13 12 12 11 11 12 12 15 17 16 18 19 20 19 19 19 21 22 22 16 12 9 5 2 2 6 5 3 5 4 4 2 6 6 5 2 4 6 5 4 4 5 5 5 9 12 13 14 14 14 14 15 15 15 15 15 14 13 13 13 13 14
8 13 22 18 11 12 11 19 21 21 16 15 14 12 10 13 12 13 12 10 11 15 16 19 19 20 19 18 19 22 22 22 17 12 11 12 7 2 4 4 4 4 4 3 7 9 6 5 7 8 4 6 5 5 5 7 9 12 12 15 15 16 16 15 14 16 16 15 15 15 16 16 14 10
8 9 11 19 16 13 15 21 20 21 16 11 11 10 12 13 13 11 11 12 13 13 14 14 14 14 16 14 14 16 22 22 18 13 12 11 12 8 0 5 5 3 0 2 5 8 7 8 5 7 5 4 3 4 5 5 6 7 7 9 10 13 15 16 14 14 17 17 16 16 15 15 12 9
8 8 8 12 18 18 19 19 20 20 19 11 10 9 11 12 11 8 9 12 10 11 11 11 12 12 12 12 12 14 14 15 14 14 13 12 10 12 11 7 5 3 3 1 0 6 4 5 7 1 2 8 4 2 4 5 6 6 6 8 10 12 14 14 13 15 16 16 16 14 13 13 12 9
8 8 8 7 15 18 18 18 19 19 19 16 10 10 8 7 6 7 8 11 13 10 10 11 11 11 11 11 10 11 11 11 11 11 12 11 11 10 10 9 7 5 4 5 6 6 6 8 7 3 4 5 7 8 4 6 6 7 6 6 9 8 8 8 8 9 12 14 14 14 13 12 12 11
7 8 7 8 13 18 18 18 19 19 17 18 10 13 15 16 15 10 7 7 7 8 9 10 11 12 11 11 11 10 10 10 9 9 9 10 10 9 8 9 8 6 5 6 7 2 5 8 8 8 6 9 4 6 9 6 5 7 7 6 7 6 8 9 9 8 7 6 7 8 10 13 12 11
7 7 8 9 15 17 17 17 18 18 18 14 13 18 17 16 15 12 8 9 9 8 8 9 9 10 11 10 10 9 9 9 8 7 7 7 7 6 7 7 6 4 4 6 3 5 4 4 4 2 7 11 13 7 8 8 5 6 8 6 7 7 6 8 8 7 6 7 7 13 13 13 13 13
8 8 9 10 16 16 16 17 17 17 17 14 17 17 18 16 13 8 8 8 8 9 10 10 9 8 8 9 9 9 7 7 7 6 7 7 7 7 9 11 12 11 10 10 7 5 8 6 7 8 5 7 12 12 11 7 8 7 8 7 8 7 6 7 7 7 6 6 6 6 6 6 6 9
8 10 14 15 15 16 16 16 15 13 15 18 16 17 16 14 8 8 7 8 7 8 9 8 7 7 8 6 5 6 7 8 8 6 7 8 9 7 6 9 11 12 11 10 10 9 6 8 10 9 9 8 11 9 11 11 9 8 7 8 6 4 5 6 6 6 5 4 4 4 4 5 5 5
15 16 15 16 15 13 13 10 10 10 11 15 16 16 14 8 8 7 7 8 8 8 7 8 7 7 7 8 6 6 7 7 8 7 7 7 8 9 9 10 11 11 12 12 10 10 10 9 7 10 11 10 12 12 12 12 9 7 5 6 7 6 5 5 5 4 5 5 4 4 4 4 4 5
10 12 12 11 14 12 15 14 11 10 11 12 11 9 8 8 7 7 6 6 6 6 6 7 7 7 6 6 9 9 8 7 7 6 6 7 7 7 7 8 9 10 10 11 11 10 10 10 8 9 11 9 9 9 9 9 10 7 6 4 3 5 3 5 4 5 4 6 5 4 4 4 4 4
8 8 9 10 8 9 9 9 9 9 9 10 10 9 8 8 8 8 10 9 6 6 5 5 6 7 7 8 7 7 8 7 7 6 7 7 8 8 6 6 8 8 9 11 12 13 13 10 10 9 9 9 11 9 9 7 7 7 6 5 7 6 5 6 6 4 4 5 5 5 4 3 3 2
6 7 8 9 10 9 10 10 10 9 9 10 9 9 9 8 8 8 8 8 8 7 7 8 7 8 7 8 7 7 8 8 7 7 6 7 6 7 9 9 7 8 9 9 9 10 10 11 12 12 11 11 10 9 11 9 6 5 5 5 6 6 4 3 6 5 4 6 6 5 5 4 3 3
8 9 9 9 9 9 10 10 9 9 10 9 9 9 10 10 9 8 8 8 8 7 7 7 7 8 8 8 7 7 7 7 7 8 8 7 7 9 8 9 9 8 8 7 7 7 7 8 10 11 14 14 13 12 8 7 6 5 6 5 5 4 3 3 4 4 4 5 6 6 5 5 3 3
9 7 7 7 8 8 8 7 7 7 7 7 7 8 9 8 9 8 8 8 6 6 6 6 7 7 7 7 7 8 8 7 6 7 8 9 9 7 7 8 7 7 8 8 7 6 6 7 10 11 11 10 10 9 12 8 6 6 6 5 3 4 3 2 4 4 5 4 5 8 6 4 4 3
8 6 7 7 6 7 6 7 7 7 7 7 7 7 7 7 6 8 8 7 6 6 6 6 6 6 6 7 6 7 7 6 7 6 8 9 9 8 7 8 7 7 7 7 6 6 8 9 9 9 9 6 6 6 5 9 8 2 5 2 2 3 3 4 4 4 4 4 3 7 7 6 4 2
6 6 6 7 7 6 6 7 6 7 7 7 7 6 7 6 7 7 7 6 8 6 5 5 6 6 6 5 4 4 5 6 5 5 6 6 8 8 8 8 9 7 7 6 6 6 5 8 7 8 8 6 6 5 3 4 7 8 3 6 2 2 5 4 5 6 4 2 3 4 6 5 5 3
6 6 6 6 6 6 6 6 6 5 7 7 7 6 7 6 6 7 7 8 8 6 6 6 6 6 6 5 5 4 4 4 4 5 5 6 6 6 6 5 6 6 5 5 6 6 6 6 6 5 7 7 4 4 2 1 1 5 8 2 4 2 2 4 4 3 3 3 4 3 4 5 4 3
5 6 6 5 5 5 5 5 4 5 5 6 6 6 6 7 7 7 7 6 7 6 6 7 6 5 5 5 4 4 4 4 4 4 4 4 5 5 5 4 4 4 5 6 6 6 5 5 5 4 3 2 5 6 5 4 2 0 5 9 2 5 1 3 5 4 4 3 4 5 5 3 5 4
4 4 4 4 4 4 4 4 5 4 5 5 4 4 5 5 5 5 6 6 5 5 5 6 7 6 6 6 4 3 4 5 4 3 3 2 2 3 3 3 3 2 2 3 3 3 1 1 0 0 2 2 1 3 3 4 2 0 2 7 8 2 4 5 4 4 3 3 5 5 4 2 2 1
5 6 5 4 4 4 4 4 4 4 4 4 4 4 4 4 5 5 4 4 4 6 6 6 6 6 6 6 5 3 4 4 4 3 3 2 2 2 3 3 3 2 2 1 2 1 3 3 4 5 2 2 3 5 5 4 3 2 3 3 7 9 7 4 5 6 4 3 2 4 4 3 2 1
4 5 4 4 4 4 3 4 4 4 4 4 4 4 5 4 3 6 5 7 8 6 6 6 6 5 6 6 5 5 4 3 3 3 3 2 2 2 3 3 2 2 2 2 2 1 2 1 1 3 3 1 1 3 2 3 4 2 1 1 2 7 11 9 9 8 7 5 5 5 3 1 1 1
4 4 4 4 4 4 4 4 4 3 3 4 3 4 4 5 5 7 5 5 5 5 6 6 5 5 5 5 5 4 3 4 3 2 2 2 2 2 2 2 1 1 1 0 2 2 2 3 3 2 1 2 1 1 4 2 2 2 2 2 2 2 5 8 11 12 12 12 8 3 1 2 3 2
3 4 4 3 4 4 4 4 3 3 3 2 3 3 4 4 5 5 4 4 4 5 5 5 5 6 6 6 4 3 4 3 3 3 3 2 2 2 1 1 2 2 2 1 1 1 1 2 2 1 1 2 1 2 3 2 2 1 1 0 1 2 3 2 3 5 7 11 12 9 6 3 3 2
3 2 3 3 2 2 3 2 2 3 2 3 3 4 4 4 4 4 4 4 4 5 5 5 5 5 5 6 6 6 5 4 3 2 2 2 2 1 1 1 1 2 2 1 1 2 1 1 1 2 2 1 1 2 1 1 2 1 1 2 2 2 1 0 1 2 1 1 9 12 4 1 4 8
Wind_Direction
296 293 275 261 258 252 244 238 233 233 226 227 225 208 214 210 215 220 217 214 217 200 193 193 204 196 193 194 195 193 195 193 192 196 199 196 189 197 194 193 193 193 194 197 196 188 185 188 182 186 180 175 170 169 165 165 167 175 183 192 192 169 159 166 166 163 162 165 160 134 123 126 123 122
310 304 304 286 268 263 256 247 233 239 231 225 224 213 214 208 217 219 221 228 204 204 200 198 189 193 195 194 194 197 198 192 188 193 197 200 198 192 192 192 193 193 192 193 192 190 190 185 180 178 179 177 173 169 166 167 171 177 186 192 181 159 156 157 160 159 174 152 134 138 133 131 134 132
318 324 320 309 296 281 269 259 245 239 235 229 221 219 215 210 215 221 224 240 230 180 192 209 194 184 196 192 194 195 196 196 191 187 190 199 199 191 192 191 193 191 191 189 188 187 187 184 180 184 182 176 175 171 171 167 173 181 186 189 164 162 158 159 164 176 159 146 145 142 138 136 141 141
335 338 339 334 321 308 297 285 258 242 236 238 234 224 215 210 208 211 221 227 239 222 216 190 199 194 189 189 192 195 197 193 187 193 195 200 194 189 189 194 190 189 186 186 188 192 186 184 180 186 171 173 172 176 173 171 176 182 187 173 166 167 161 163 174 177 159 153 150 148 146 146 148 151
349 346 345 346 340 332 323 314 305 274 247 235 230 222 215 215 207 208 212 229 244 261 249 176 204 190 172 189 196 200 197 190 189 193 190 193 191 198 194 181 190 186 185 186 188 189 185 182 185 175 174 177 175 179 176 179 177 181 182 169 172 169 164 166 177 174 163 159 154 155 154 155 158 160
351 347 348 350 342 340 336 337 331 335 333 313 278 231 209 203 196 195 205 223 225 218 354 137 133 168 187 201 193 196 195 197 183 184 188 187 188 194 197 187 187 189 182 184 186 186 184 182 185 175 180 180 176 179 177 178 180 183 173 172 172 172 168 171 172 170 168 159 156 160 162 162 164 166
2 6 359 352 341 341 343 346 338 335 322 308 293 262 224 214 201 183 204 208 220 232 230 154 172 185 189 202 195 198 201 195 183 184 187 189 189 197 194 193 181 182 181 180 182 183 182 182 181 175 180 182 178 177 177 180 180 177 170 174 175 175 171 171 168 168 173 162 160 163 165 165 166 169
11 10 6 356 346 343 344 342 338 329 310 307 308 275 228 225 191 185 184 205 209 197 227 204 191 194 194 219 214 206 202 191 182 190 185 175 192 194 181 190 182 180 179 177 179 181 181 183 179 174 179 182 177 176 178 177 180 174 170 174 177 177 172 168 166 169 172 165 164 167 166 166 170 174
12 11 10 3 0 356 352 348 345 343 334 332 337 331 334 242 204 203 199 201 190 197 212 215 190 174 206 210 215 202 191 176 170 180 166 164 175 179 166 177 186 166 177 176 179 182 182 184 181 175 176 179 177 178 178 178 181 176 172 175 177 178 173 167 168 170 170 167 166 172 169 170 175 179
7 8 11 12 12 12 6 350 347 342 340 336 338 335 317 237 200 247 212 182 213 214 232 222 221 195 202 216 205 189 188 163 153 155 146 154 166 158 160 178 155 155 170 161 186 186 184 185 183 178 176 176 179 180 180 181 181 178 175 176 178 177 174 169 169 170 168 167 169 172 170 173 181 183
4 8 10 14 13 18 16 9 1 348 353 339 337 350 342 268 221 211 211 210 226 233 223 204 208 204 212 201 208 182 180 171 175 170 138 157 165 172 175 175 155 143 163 185 186 180 183 185 185 181 177 178 179 180 182 184 180 179 177 177 178 178 175 171 170 171 169 169 171 172 172 178 185 188
7 12 11 14 12 13 18 15 9 4 353 350 3 357 335 326 318 296 276 191 189 264 247 213 208 204 197 203 14 105 145 129 183 178 171 169 170 177 181 188 162 160 159 161 177 191 189 187 189 184 180 180 179 180 183 185 182 179 179 177 177 176 174 171 171 172 172 173 175 174 177 182 187 192
15 14 12 13 13 13 16 23 30 28 23 19 21 2 352 350 331 11 45 307 245 257 255 252 222 203 210 206 177 180 182 192 199 160 165 185 178 167 168 176 169 162 164 163 162 171 178 176 186 178 185 187 181 180 180 187 185 182 174 177 174 174 174 174 173 175 176 177 179 179 182 185 187 195
26 15 12 11 14 10 10 12 23 31 33 37 42 24 14 1 7 348 326 239 210 246 256 250 230 213 220 212 206 200 182 165 97 154 177 178 172 157 158 134 162 166 161 151 175 180 168 174 181 175 188 184 177 176 180 179 179 178 179 178 175 174 175 175 175 176 179 182 182 183 185 185 188 192
22 19 18 16 10 12 10 9 8 30 33 37 41 44 44 44 40 21 14 0 335 283 263 282 236 226 227 231 222 224 191 188 177 182 184 175 161 166 162 172 129 181 160 163 165 173 173 171 176 184 180 167 170 166 182 176 176 176 176 176 175 176 174 174 175 178 182 183 184 185 186 184 186 191
13 13 17 17 10 11 11 5 4 14 24 29 35 40 45 44 44 50 50 23 14 3 358 0 2 353 330 325 317 283 267 223 204 193 181 176 173 176 183 172 176 163 162 149 154 154 148 170 158 140 132 156 157 173 172 170 178 173 173 172 171 173 171 170 172 175 179 180 180 181 181 180 183 186
21 16 15 16 18 9 13 10 8 10 15 23 29 33 38 44 42 37 38 40 33 9 24 19 25 13 344 346 343 320 272 328 244 203 202 183 186 191 181 163 129 155 156 139 142 148 161 149 129 124 100 103 126 127 159 167 167 168 166 165 167 168 166 166 167 168 170 173 174 175 175 177 180 183
24 20 22 22 17 9 12 8 4 10 14 21 27 29 31 32 32 35 36 35 33 37 37 37 35 10 17 12 351 345 330 272 228 205 219 196 178 183 189 152 141 140 156 157 126 105 146 126 118 118 85 74 86 114 150 158 158 160 163 163 164 165 164 163 164 165 168 171 173 171 166 164 162 159
27 21 17 24 28 25 24 12 7 18 22 25 28 28 30 31 29 30 28 23 23 31 32 37 37 26 24 28 25 16 6 345 317 265 242 211 199 167 114 100 124 141 155 138 138 152 137 116 98 81 86 72 71 72 132 151 154 158 161 161 160 160 160 161 161 162 161 158 150 145 144 143 143 140
29 26 22 17 21 18 17 6 13 18 24 35 31 30 27 28 29 30 20 24 31 36 33 36 36 31 26 32 31 28 27 16 352 328 7 82 112 136 130 118 136 143 147 146 137 109 133 67 106 81 66 74 71 58 67 130 140 143 146 147 147 145 147 146 146 143 140 136 133 131 130 127 124 123
26 28 25 21 19 19 18 8 15 17 28 34 29 27 26 26 31 25 11 15 23 24 30 34 33 31 25 27 28 27 28 28 22 11 359 327 232 149 143 113 139 140 122 104 115 106 116 89 96 92 54 60 52 48 58 87 121 131 133 133 133 134 133 133 133 129 126 125 124 122 117 113 110 106
23 25 28 30 23 22 17 17 21 16 25 38 33 27 22 32 29 20 12 14 20 23 29 29 28 29 25 23 29 30 28 28 29 42 19 337 308 199 139 151 137 120 134 125 131 110 129 120 116 104 114 69 41 32 44 73 91 99 109 117 123 125 125 124 125 127 123 121 120 119 119 119 114 108
24 20 21 25 26 27 23 25 26 24 25 32 24 17 30 35 32 18 10 15 16 19 24 23 22 24 21 23 28 30 30 30 31 30 23 14 19 337 108 107 99 87 14 179 154 118 144 142 169 140 118 66 44 41 36 49 76 93 102 105 100 105 113 115 118 117 116 118 119 120 121 120 115 109
20 21 15 21 21 25 27 27 27 28 27 31 25 19 32 25 18 350 13 19 21 30 32 27 25 24 19 23 25 31 31 29 29 29 27 24 28 27 5 18 45 72 12 245 131 117 133 151 155 284 126 137 131 90 52 53 62 80 97 103 104 103 100 97 97 102 107 109 111 115 119 120 117 110
22 13 12 8 14 23 27 29 28 29 28 28 31 27 29 17 337 358 24 18 22 30 28 30 29 26 22 23 23 27 30 28 24 27 28 31 32 31 28 12 24 47 31 3 341 138 144 168 151 117 78 64 124 121 93 89 60 69 66 84 104 100 96 97 103 96 94 97 102 105 104 105 107 115
23 17 9 14 13 23 26 29 30 29 29 28 31 21 21 16 16 23 20 22 20 25 27 27 28 26 24 22 18 17 22 21 17 22 26 30 35 37 28 26 20 20 349 330 340 70 118 172 164 139 131 120 83 109 119 80 66 63 71 64 75 98 108 104 92 88 90 92 83 87 92 91 90 98
15 11 16 14 18 25 25 27 29 30 27 30 24 22 23 22 18 24 26 24 26 22 24 27 27 22 22 21 19 16 13 9 9 13 14 18 28 43 53 47 43 35 324 331 10 75 64 76 25 88 139 129 121 107 100 114 108 88 73 71 74 69 78 93 96 98 95 95 92 93 87 85 88 82
25 22 19 20 23 25 25 24 26 28 29 27 23 22 21 23 25 26 27 28 28 30 26 26 20 17 13 16 17 11 3 8 0 6 11 9 7 19 32 33 29 22 21 20 19 68 102 98 80 63 54 116 126 131 116 74 91 95 97 71 65 62 63 84 93 92 89 98 99 98 98 97 99 93
31 28 27 25 26 26 24 23 23 24 22 22 23 23 20 21 20 22 24 24 19 28 26 20 17 9 7 359 360 357 10 11 12 10 13 14 15 9 30 46 39 27 24 22 33 34 48 97 105 99 93 92 92 70 89 102 103 98 96 105 85 61 71 76 100 99 95 80 82 80 91 114 96 103
27 26 24 25 24 28 26 24 22 21 15 16 21 21 20 17 19 16 20 19 25 23 15 18 14 3 347 359 338 3 21 28 16 6 16 24 18 15 17 29 30 28 27 22 28 42 47 48 70 95 93 93 99 109 116 117 110 110 80 86 112 86 63 87 84 91 96 87 77 75 48 58 73 100
20 22 24 23 22 22 24 27 27 26 15 19 16 15 12 13 10 13 18 20 20 14 5 8 5 357 351 341 6 12 14 19 12 1 22 37 25 18 20 35 34 30 24 29 31 33 47 49 40 79 91 88 89 102 113 116 121 113 98 97 84 108 123 94 83 85 94 94 83 70 66 72 65 52
13 19 20 25 24 21 23 18 18 17 21 22 19 15 10 7 4 2 6 20 26 15 357 354 353 4 1 12 357 3 17 14 10 357 27 34 35 24 22 32 30 31 31 26 30 31 41 40 56 58 76 96 103 95 84 82 91 98 91 77 82 74 81 109 105 86 89 102 78 68 61 33 67 57
14 33 33 28 26 26 25 25 23 15 13 16 15 15 13 7 8 10 14 9 4 354 358 8 3 6 360 8 1 7 18 16 7 353 26 32 37 36 44 45 30 30 36 33 35 39 44 51 53 67 74 67 65 85 104 94 54 63 93 90 83 69 50 74 117 119 122 85 89 98 77 33 12 56
44 36 39 32 29 23 26 26 23 16 18 15 13 13 14 13 11 9 7 10 356 350 3 3 10 5 4 12 3 8 16 10 18 16 28 33 35 49 46 47 40 33 40 38 34 38 49 58 66 63 66 64 60 50 47 76 90 80 76 84 82 71 29 76 94 110 103 122 129 102 86 76 18 41
42 29 34 25 25 22 26 27 16 13 13 12 11 7 10 16 12 9 10 2 350 360 0 5 11 12 17 10 4 10 8 15 14 24 33 43 38 39 45 49 39 36 40 35 22 10 35 52 66 66 58 60 60 44 43 41 88 79 76 54 50 102 75 29 85 96 109 115 117 108 92 65 72 40
38 30 32 26 20 13 25 15 14 15 14 10 13 1 9 8 9 8 6 348 358 5 7 5 10 13 15 9 7 8 7 13 28 30 39 44 41 34 39 41 40 35 39 35 29 29 45 47 66 79 78 60 73 77 12 20 41 80 103 75 33 59 74 67 57 71 100 120 130 127 128 129 119 108
44 32 33 28 19 20 21 9 10 11 13 9 9 13 10 6 357 2 356 356 20 15 9 5 14 7 13 12 14 16 15 21 25 24 37 49 52 44 42 37 36 30 37 28 31 30 71 91 88 91 83 70 58 55 32 323 19 34 76 119 59 54 121 112 96 74 24 55 75 96 131 133 134 123
45 30 31 26 19 10 16 13 7 13 9 9 8 7 7 6 1 359 355 14 11 9 5 13 6 9 15 14 13 14 19 27 34 35 33 37 48 49 46 49 44 32 32 35 35 37 32 43 46 56 103 113 98 95 88 8 351 8 9 360 133 130 97 116 100 105 68 22 69 38 79 112 117 117
39 32 25 22 11 5 14 6 11 9 5 8 10 6 359 4 3 1 10 10 5 8 7 12 8 360 14 20 16 11 19 24 32 33 39 37 45 55 47 48 55 33 38 40 38 36 30 45 32 31 29 130 154 169 151 140 87 273 16 33 89 121 97 123 110 86 102 101 77 71 49 56 77 73
23 38 24 14 7 359 5 3 13 10 8 6 359 3 4 5 1 4 4 1 2 8 14 12 359 2 11 13 17 17 26 28 22 30 34 43 37 45 45 44 57 55 64 71 68 23 22 22 261 264 248 185 154 113 119 104 114 99 55 36 28 51 142 143 116 123 90 87 118 103 106 117 98 356
16 26 11 359 357 5 359 3 0 359 8 356 357 356 6 358 7 5 359 359 5 11 9 7 10 7 6 1 7 18 36 23 20 13 10 30 40 38 44 50 45 17 53 57 81 315 322 358 313 268 242 91 130 133 111 106 88 64 50 13 9 38 36 19 131 136 120 136 101 107 114 118 122 107
27 28 5 3 5 354 359 357 353 2 1 358 357 356 351 4 6 355 1 9 12 10 7 8 4 4 7 3 2 4 31 33 19 8 9 360 16 39 38 36 57 31 40 16 348 333 317 333 274 109 84 111 148 106 90 114 120 106 83 24 49 32 41 55 56 66 105 136 133 113 96 72 91 126
27 24 17 355 355 3 10 354 355 355 353 355 0 354 358 1 4 10 7 5 3 6 4 356 360 2 6 4 5 6 11 16 7 13 5 10 10 36 47 53 63 61 72 53 342 334 352 12 41 75 68 62 23 86 126 125 104 111 103 92 56 19 55 48 76 83 79 66 56 73 213 163 141 178
6 14 5 359 3 5 1 3 353 353 348 357 354 357 11 3 5 1 1 2 3 1 350 356 357 1 357 356 352 7 19 2 342 1 18 20 18 13 7 61 83 71 77 68 71 55 39 32 18 6 60 36 26 101 113 105 89 67 89 37 14 81 73 76 81 87 78 52 33 12 352 293 266 230
334 333 349 348 360 357 5 355 7 352 355 3 10 13 6 7 5 356 2 2 3 357 357 358 356 356 354 356 1 3 354 343 337 348 32 29 18 27 39 343 33 80 52 54 109 79 47 56 41 43 58 34 35 94 105 93 100 112 75 86 82 59 53 15 97 94 31 359 12 359 317 24 87 84